Location: Kruen
(47.5000°N, 11.5000°E)
Time: 22:50:51
(UTC+01:00)

ISS - Pass Details

Date: 23 September 2020
Orbit: 417 x 420 km, 51.6° (Epoch: 27 October)

Event Time Altitude Azimuth Distance (km) Brightness Sun altitude
Rises 19:22:43 0° 239° (WSW) 2,355 1.1 -3.1°
Reaches altitude 10° 19:24:48 10° 237° (WSW) 1,495 0.0 -3.5°
Maximum altitude 19:28:09 74° 152° (SSE) 440 -3.7 -4.1°
Drops below altitude 10° 19:31:31 10° 68° (ENE) 1,503 -1.5 -4.6°
Enters shadow 19:32:48 - 67° (ENE) 2,031 -0.8 -4.8°
Exits shadow 20:07:10 -72° 73° (ENE) 12,562 3.6 -10.6°
